Total_Precipitation_Accumulation
0.65 0.65 0.71 0.82 0.87 0.92 0.92 0.84 0.78 0.76 0.78 0.86 0.98 1.00 0.98 0.98 0.94 0.92 0.88 0.86 0.86 0.85 0.88 0.93 0.91 0.89 0.94 0.89 0.83 0.78 0.79 0.87 0.85 0.45 0.35 0.38 0.55 0.73 0.77 0.73 0.74 0.72 0.66
0.62 0.72 0.70 0.75 0.87 0.90 0.84 0.81 0.83 0.81 0.80 0.83 0.92 1.05 1.07 1.05 1.00 0.97 0.97 1.01 1.07 1.02 0.96 0.97 0.98 0.98 1.01 0.99 0.97 0.89 0.78 0.73 0.79 0.64 0.45 0.47 0.58 0.74 0.82 0.81 0.78 0.76 0.70
0.52 0.66 0.76 0.79 0.85 0.91 0.86 0.78 0.82 0.87 0.85 0.85 0.92 1.07 1.15 1.16 1.12 1.03 1.01 1.06 1.16 1.22 1.20 1.17 1.10 1.07 1.08 1.03 1.04 1.00 0.89 0.77 0.74 0.75 0.60 0.52 0.59 0.72 0.85 0.90 0.83 0.82 0.82
0.38 0.55 0.66 0.76 0.82 0.87 0.89 0.87 0.84 0.85 0.87 0.88 0.89 0.97 1.09 1.20 1.28 1.27 1.27 1.22 1.22 1.26 1.29 1.31 1.28 1.27 1.21 1.16 1.14 1.10 1.05 1.02 0.95 0.94 0.84 0.71 0.67 0.73 0.90 1.03 1.00 0.90 0.88
0.29 0.40 0.56 0.66 0.76 0.84 0.89 0.91 0.94 0.94 0.88 0.88 0.89 0.88 0.96 1.22 1.57 1.56 1.47 1.40 1.27 1.18 1.13 1.14 1.21 1.35 1.39 1.44 1.46 1.36 1.31 1.37 1.33 1.26 1.11 0.96 0.85 0.89 1.00 1.05 1.19 1.12 1.03
0.30 0.31 0.43 0.59 0.71 0.80 0.86 0.95 0.96 0.98 0.97 0.94 0.91 0.87 0.90 1.10 1.53 1.58 1.31 1.11 0.99 0.98 0.97 0.91 0.93 1.12 1.20 1.32 1.44 1.44 1.49 1.62 1.68 1.61 1.38 1.17 0.94 0.89 0.97 1.15 1.33 1.47 1.39
0.22 0.24 0.32 0.44 0.62 0.75 0.81 0.90 1.02 1.03 1.01 0.99 0.92 0.86 0.81 0.88 1.26 1.37 1.17 0.91 0.79 0.76 0.78 0.78 0.79 0.86 0.99 0.99 1.13 1.21 1.28 1.44 1.63 1.71 1.65 1.28 1.01 0.89 1.08 1.27 1.35 1.48 1.39
0.20 0.19 0.23 0.30 0.45 0.61 0.77 0.86 0.96 1.06 1.07 1.02 0.95 0.87 0.83 0.78 1.10 1.29 1.16 0.84 0.71 0.65 0.65 0.63 0.63 0.68 0.82 0.96 1.07 1.08 1.04 1.14 1.40 1.60 1.72 1.53 1.29 1.18 1.33 1.61 1.75 1.80 1.66
0.18 0.18 0.18 0.21 0.30 0.46 0.61 0.75 0.85 0.96 1.00 0.99 0.94 0.86 0.83 0.81 0.99 1.32 1.29 0.92 0.76 0.64 0.62 0.62 0.57 0.56 0.78 0.99 1.01 0.98 0.89 0.92 1.09 1.36 1.56 1.63 1.64 1.71 1.80 2.09 2.27 2.24 2.11
0.16 0.16 0.16 0.17 0.22 0.34 0.47 0.61 0.77 0.88 0.95 0.96 0.96 0.88 0.83 0.79 0.92 1.30 1.47 1.04 0.84 0.72 0.66 0.63 0.70 0.72 0.86 0.93 0.89 0.94 0.98 0.88 0.85 0.93 1.03 1.14 1.22 1.35 1.61 1.86 2.04 2.13 2.12
0.17 0.15 0.14 0.15 0.18 0.27 0.41 0.54 0.72 0.85 0.94 0.94 0.90 0.90 0.82 0.78 0.80 1.09 1.49 1.25 0.94 0.82 0.77 0.72 0.67 0.78 0.83 0.86 0.89 0.91 1.02 0.93 0.87 0.97 0.98 0.95 0.99 1.12 1.26 1.51 1.79 1.98 2.10
0.16 0.16 0.15 0.14 0.17 0.24 0.39 0.53 0.66 0.82 0.95 0.97 0.90 0.93 0.92 0.85 0.83 1.00 1.26 1.29 1.09 0.86 0.78 0.68 0.68 0.80 0.84 0.90 0.88 0.94 1.00 0.98 0.93 0.93 0.89 0.86 0.89 0.98 1.10 1.28 1.52 1.71 1.79
0.16 0.15 0.16 0.16 0.18 0.24 0.35 0.50 0.70 0.80 0.92 0.98 0.90 0.90 0.96 0.95 0.95 1.12 1.15 1.16 1.14 0.99 0.95 0.96 0.88 0.91 0.91 0.85 0.87 0.89 0.88 0.86 0.91 0.91 0.82 0.74 0.76 0.87 0.96 1.09 1.26 1.46 1.60
0.17 0.16 0.16 0.20 0.24 0.26 0.34 0.45 0.65 0.80 0.91 1.01 0.94 0.86 0.90 0.98 1.13 1.29 1.22 1.12 1.15 1.13 1.11 1.11 1.07 1.03 0.93 0.85 0.83 0.78 0.75 0.79 0.82 0.80 0.72 0.65 0.65 0.75 0.87 1.00 1.18 1.35 1.56
0.19 0.18 0.19 0.23 0.28 0.31 0.38 0.46 0.58 0.70 0.90 1.07 0.99 0.91 1.00 1.16 1.28 1.43 1.34 1.23 1.24 1.26 1.20 1.15 1.06 1.03 1.01 0.88 0.77 0.71 0.69 0.72 0.72 0.65 0.65 0.65 0.66 0.73 0.80 0.91 1.13 1.29 1.45
0.23 0.22 0.23 0.28 0.29 0.32 0.41 0.51 0.61 0.68 0.77 0.81 0.90 0.96 0.94 1.15 1.22 1.18 1.16 1.11 1.17 1.27 1.20 1.11 0.94 0.85 0.84 0.78 0.72 0.69 0.65 0.63 0.60 0.58 0.63 0.66 0.69 0.75 0.81 0.87 1.05 1.24 1.32
0.28 0.27 0.29 0.31 0.30 0.31 0.39 0.51 0.64 0.71 0.77 0.80 0.82 0.89 0.93 1.06 1.11 1.11 1.10 1.03 1.00 1.01 0.97 0.86 0.76 0.70 0.66 0.64 0.64 0.60 0.58 0.55 0.56 0.60 0.62 0.61 0.63 0.69 0.76 0.83 0.94 1.08 1.19
0.31 0.34 0.36 0.35 0.33 0.35 0.42 0.53 0.64 0.75 0.82 0.86 0.89 0.95 0.98 1.00 1.05 1.10 1.15 1.13 1.09 0.97 0.81 0.75 0.73 0.69 0.65 0.62 0.61 0.59 0.56 0.55 0.59 0.61 0.60 0.57 0.60 0.67 0.71 0.74 0.80 0.94 1.07
0.33 0.36 0.40 0.41 0.40 0.40 0.45 0.54 0.64 0.72 0.77 0.83 0.91 1.08 1.17 1.15 1.13 1.16 1.14 1.01 0.91 0.84 0.77 0.71 0.70 0.73 0.71 0.65 0.60 0.58 0.59 0.58 0.56 0.59 0.58 0.57 0.58 0.64 0.67 0.67 0.74 0.86 0.98
0.33 0.41 0.46 0.48 0.46 0.47 0.51 0.58 0.66 0.74 0.77 0.81 0.85 0.94 1.13 1.21 1.19 1.20 1.12 0.97 0.85 0.76 0.71 0.69 0.68 0.71 0.73 0.70 0.65 0.64 0.64 0.61 0.59 0.59 0.55 0.54 0.56 0.60 0.62 0.64 0.69 0.75 0.81
0.37 0.41 0.47 0.49 0.48 0.52 0.57 0.63 0.70 0.78 0.79 0.79 0.79 0.84 1.04 1.09 1.02 0.96 1.01 0.99 0.90 0.80 0.73 0.72 0.70 0.70 0.72 0.70 0.68 0.67 0.67 0.63 0.59 0.56 0.52 0.49 0.51 0.56 0.58 0.60 0.61 0.63 0.69
0.41 0.44 0.47 0.50 0.53 0.58 0.64 0.68 0.74 0.80 0.78 0.78 0.79 0.86 0.95 0.85 0.80 0.80 0.85 0.90 0.89 0.83 0.76 0.77 0.74 0.69 0.70 0.71 0.71 0.71 0.71 0.65 0.58 0.56 0.53 0.49 0.48 0.50 0.51 0.52 0.52 0.54 0.60
0.43 0.48 0.53 0.54 0.57 0.64 0.68 0.66 0.72 0.78 0.79 0.78 0.79 0.82 0.87 0.85 0.80 0.76 0.78 0.82 0.85 0.84 0.78 0.77 0.76 0.69 0.65 0.65 0.67 0.72 0.74 0.67 0.58 0.57 0.58 0.53 0.49 0.47 0.47 0.46 0.44 0.48 0.55
0.46 0.52 0.59 0.62 0.63 0.64 0.68 0.70 0.72 0.78 0.82 0.82 0.79 0.79 0.83 0.85 0.82 0.77 0.75 0.76 0.80 0.80 0.75 0.75 0.73 0.67 0.61 0.60 0.60 0.61 0.62 0.63 0.63 0.63 0.60 0.58 0.53 0.47 0.47 0.47 0.43 0.45 0.52
0.51 0.56 0.62 0.68 0.70 0.71 0.73 0.74 0.74 0.79 0.84 0.82 0.81 0.80 0.79 0.81 0.82 0.79 0.74 0.74 0.75 0.73 0.67 0.68 0.71 0.69 0.61 0.56 0.54 0.53 0.60 0.66 0.69 0.74 0.80 0.76 0.63 0.51 0.49 0.48 0.46 0.47 0.52
0.52 0.56 0.63 0.70 0.72 0.75 0.78 0.80 0.79 0.80 0.83 0.81 0.79 0.80 0.80 0.82 0.83 0.80 0.76 0.75 0.77 0.73 0.67 0.65 0.65 0.64 0.59 0.56 0.54 0.55 0.58 0.62 0.67 0.75 0.85 0.92 0.77 0.60 0.54 0.53 0.49 0.49 0.53